Regional Weather Roundup
Issued by NWS

Home | Current Version | Previous Version | Text Only | Print | Product List | Glossary On
Versions: 1 2 3 4 5 6 7 8 9 10 11 12 13 14 15 16 17 18 19 20 21 22 23 24 25 26 27
000
ASUS44 KLIX 291511
RWRLA
LOUISIANA WEATHER ROUNDUP
NATIONAL WEATHER SERVICE NEW ORLEANS LA
1000 AM CDT SUN MAY 29 2016

NOTE: "FAIR" INDICATES FEW OR NO CLOUDS BELOW 12,000 FEET WITH NO
      SIGNIFICANT WEATHER AND/OR OBSTRUCTIONS TO VISIBILITY.
      SKY/WX - SKY CONDITION AND SIGNIFICANT WEATHER.
      TMP - AIR TEMPERATURE.    DP   - DEWPOINT TEMPERATURE.
      RH  - RELATIVE HUMIDITY.  PRES - PRESSURE.
      HX  - HEAT INDEX.         WCI  - WIND CHILL INDEX.

*  THESE STATIONS ARE NOT NWS OR FAA STATIONS AND ARE NOT UNDER
   NWS QUALITY CONTROL.

LAZ040-048-061>063-065-066-069-291600-
SOUTHEAST LOUISIANA

CITY           SKY/WX    TMP DP  RH WIND       PRES   REMARKS
N.O. AUDUBON     N/A     81  72  75 MISG        N/A
N.O. INTL ARPT PTSUNNY   84  73  69 N8        30.12S
N.O. LAKEFRONT SUNNY     81  73  76 NE8       30.14R
N.O. DOWNTOWN* FAIR      81  70  69 CALM      30.13S
RESERVE*       PTSUNNY   83  73  69 N3        30.13S
SLIDELL        SUNNY     82  71  69 E5        30.12S
BATON ROUGE    PTSUNNY   80  68  66 CALM      30.14S
BOOTHVILLE     SUNNY     81  73  76 NE5       30.13R
BELLE CHASSE   MOSUNNY   82  73  74 E6        30.12S
BOGALUSA*      FAIR      81  66  61 CALM      30.15F
GALLIANO*      PTSUNNY   82  73  75 NE5       30.12R
NEW ROADS*     CLOUDY    77  71  84 CALM      30.16R
GONZALES*      PTSUNNY   76  72  88 NW3       30.13S
HAMMOND*       SUNNY     82  66  57 CALM      30.14R
HOUMA*         MOSUNNY   81  73  78 N5        30.13R
PORT FOURCHON* MOSUNNY   81  73  78 E8G15     30.12R

$$

LAZ041-044-053-054-291600-
SOUTHWEST LOUISIANA

CITY           SKY/WX    TMP DP  RH WIND       PRES   REMARKS
LAKE CHARLES   PTSUNNY   80  74  81 NE5       30.13R
LAFAYETTE      CLOUDY    80  73  79 NE5       30.14S
PATTERSON      PTSUNNY   80  72  76 N5        30.14R
SALT POINT       N/A     82  71  69 VRB5      30.12R
NEW IBERIA     CLOUDY    82  72  71 N7        30.15R
CHENAULT AIRPK MOSUNNY  N/A N/A N/A E6          N/A

$$

LAZ027-028-291600-
CENTRAL LOUISIANA

CITY           SKY/WX    TMP DP  RH WIND       PRES   REMARKS
FORT POLK      MOSUNNY   80  71  72 NE5       30.14S
ALEXANDRIA INT SUNNY     80  72  76 CALM      30.14R
ALEXANDRIA     SUNNY     84  73  69 SE3       30.15R

$$

LAZ001-002-291600-
NORTHWEST LOUISIANA

CITY           SKY/WX    TMP DP  RH WIND       PRES   REMARKS
SHREVEPORT     CLOUDY    83  72  69 VRB6      30.12R
BARKSDALE AFB  PTSUNNY   85  69  58 VRB5      30.12R
DTN SHREVEPORT CLOUDY    82  70  66 W5        30.12R

$$

LAZ014-016-291600-
NORTHEAST LOUISIANA

CITY           SKY/WX    TMP DP  RH WIND       PRES   REMARKS
MONROE         MOSUNNY   83  72  69 VRB3      30.16R
TALLULAH       MOSUNNY   82  71  69 VRB3      30.15S

$$





USA.gov is the U.S. government's official web portal to all federal, state and local government web resources and services.